When you browse on this site, cookies collect data to enhance your experience and personalize the content and advertising you see.
Visit our Privacy Policy to learn more. By continuing to use the site, you agree to this use of cookies and data.
  • In United Kingdom
  • List of Countries
  • For 7 days
  • Water Temperature
  • Satellite Maps
  • Weather Map
  • Weather Widgets
  • user-avatar
    Login

    Hourly Weather Vuokatti

    Today, 26 May, Sunday

    Time Temperature Precipitation Wind Pressure Humidity
    00:00 +7°C° 0 mm 1 mps 734 mmHg 96%
    01:00 +7°C° 0 mm 1 mps 734 mmHg 96%
    02:00 +7°C° 0 mm 1 mps 734 mmHg 95%
    03:00 +7°C° 0.1 mm 1 mps 734 mmHg 94%
    04:00 +8°C° 0.1 mm 1 mps 734 mmHg 93%
    05:00 +8°C° 0.1 mm 1 mps 734 mmHg 92%
    06:00 +9°C° 0.1 mm 1 mps 734 mmHg 90%
    07:00 +9°C° 0.1 mm 1 mps 734 mmHg 89%
    08:00 +9°C° 0 mm 2 mps 734 mmHg 88%
    09:00 +9°C° 0.1 mm 2 mps 734 mmHg 87%
    10:00 +9°C° 0.1 mm 3 mps 734 mmHg 86%
    11:00 +9°C° 0.1 mm 3 mps 734 mmHg 84%
    12:00 +10°C° 0.1 mm 3 mps 734 mmHg 78%
    13:00 +12°C° 0.1 mm 2 mps 734 mmHg 72%
    14:00 +13°C° 0.1 mm 2 mps 734 mmHg 67%
    15:00 +12°C° 0.1 mm 2 mps 734 mmHg 66%
    16:00 +12°C° 0.1 mm 2 mps 734 mmHg 66%
    17:00 +12°C° 0.1 mm 2 mps 733 mmHg 65%
    18:00 +10°C° 0 mm 2 mps 733 mmHg 67%
    19:00 +11°C° 0 mm 1 mps 733 mmHg 69%
    20:00 +10°C° 0 mm 1 mps 733 mmHg 71%
    21:00 +9°C° 0.1 mm 1 mps 733 mmHg 77%
    22:00 +8°C° 0.1 mm 1 mps 732 mmHg 82%
    23:00 +7°C° 0.1 mm 1 mps 732 mmHg 88%

    Tomorrow, 27 May, Monday

    Time Temperature Precipitation Wind Pressure Humidity
    00:00 +7°C° 0.4 mm 1 mps 732 mmHg 90%
    01:00 +7°C° 0.4 mm 1 mps 732 mmHg 91%
    02:00 +7°C° 0.4 mm 1 mps 732 mmHg 93%
    03:00 +7°C° 0.5 mm 1 mps 732 mmHg 93%
    04:00 +8°C° 0.5 mm 1 mps 732 mmHg 93%
    05:00 +7°C° 0.5 mm 2 mps 732 mmHg 93%
    06:00 +8°C° 0.1 mm 1 mps 732 mmHg 91%
    07:00 +9°C° 0.1 mm 1 mps 732 mmHg 89%
    08:00 +10°C° 0.1 mm 1 mps 732 mmHg 87%
    09:00 +11°C° 0.2 mm 1 mps 733 mmHg 82%
    10:00 +12°C° 0.2 mm 1 mps 733 mmHg 77%
    11:00 +14°C° 0.2 mm 1 mps 733 mmHg 72%
    12:00 +13°C° 0.7 mm 1 mps 734 mmHg 75%
    13:00 +13°C° 0.7 mm 1 mps 734 mmHg 77%
    14:00 +13°C° 0.7 mm 1 mps 734 mmHg 80%
    15:00 +13°C° 0.7 mm 1 mps 734 mmHg 79%
    16:00 +13°C° 0.7 mm 1 mps 734 mmHg 77%
    17:00 +13°C° 0.7 mm 0 mps 734 mmHg 76%
    18:00 +12°C° 0.5 mm 0 mps 735 mmHg 80%
    19:00 +11°C° 0.5 mm 0 mps 735 mmHg 83%
    20:00 +11°C° 0.5 mm 0 mps 735 mmHg 86%
    21:00 +10°C° 0.2 mm 0 mps 736 mmHg 88%
    22:00 +9°C° 0.2 mm 0 mps 736 mmHg 91%
    23:00 +8°C° 0.2 mm 0 mps 736 mmHg 93%

    Day after tomorrow, 28 May, Tuesday

    Time Temperature Precipitation Wind Pressure Humidity
    00:00 +7°C° 0 mm 0 mps 737 mmHg 93%
    01:00 +7°C° 0 mm 0 mps 737 mmHg 94%
    02:00 +6°C° 0 mm 0 mps 737 mmHg 94%
    03:00 +7°C° 0 mm 0 mps 738 mmHg 93%
    04:00 +7°C° 0 mm 0 mps 738 mmHg 91%
    05:00 +9°C° 0 mm 1 mps 738 mmHg 90%
    06:00 +10°C° 0.2 mm 1 mps 739 mmHg 87%
    07:00 +11°C° 0.2 mm 1 mps 739 mmHg 85%
    08:00 +12°C° 0.2 mm 2 mps 739 mmHg 83%
    09:00 +12°C° 0.3 mm 2 mps 739 mmHg 82%
    10:00 +12°C° 0.3 mm 2 mps 739 mmHg 81%
    11:00 +12°C° 0.3 mm 2 mps 740 mmHg 81%
    12:00 +12°C° 0.6 mm 3 mps 740 mmHg 81%
    13:00 +12°C° 0.6 mm 3 mps 740 mmHg 81%
    14:00 +12°C° 0.6 mm 3 mps 740 mmHg 82%
    15:00 +13°C° 0.3 mm 3 mps 740 mmHg 80%
    16:00 +14°C° 0.3 mm 2 mps 740 mmHg 77%
    17:00 +15°C° 0.3 mm 2 mps 740 mmHg 75%
    18:00 +14°C° 0 mm 2 mps 740 mmHg 78%
    19:00 +14°C° 0 mm 1 mps 740 mmHg 82%
    20:00 +13°C° 0 mm 1 mps 740 mmHg 85%
    21:00 +12°C° 0 mm 1 mps 741 mmHg 88%
    22:00 +11°C° 0 mm 1 mps 741 mmHg 92%
    23:00 +9°C° 0 mm 2 mps 741 mmHg 95%

    29 May, Wednesday

    Time Temperature Precipitation Wind Pressure Humidity
    00:00 +8°C° 0 mm 2 mps 741 mmHg 95%
    01:00 +8°C° 0 mm 2 mps 741 mmHg 96%
    02:00 +8°C° 0 mm 2 mps 741 mmHg 96%
    03:00 +8°C° 0 mm 2 mps 742 mmHg 94%
    04:00 +9°C° 0 mm 2 mps 742 mmHg 92%
    05:00 +9°C° 0 mm 2 mps 742 mmHg 90%
    06:00 +10°C° 0 mm 2 mps 742 mmHg 83%
    07:00 +12°C° 0 mm 3 mps 742 mmHg 77%
    08:00 +13°C° 0 mm 3 mps 742 mmHg 71%
    09:00 +14°C° 0 mm 3 mps 742 mmHg 64%
    10:00 +16°C° 0 mm 3 mps 742 mmHg 58%
    11:00 +17°C° 0 mm 3 mps 742 mmHg 52%
    12:00 +18°C° 0 mm 3 mps 742 mmHg 50%
    13:00 +18°C° 0 mm 3 mps 742 mmHg 48%
    14:00 +19°C° 0 mm 3 mps 742 mmHg 46%
    15:00 +18°C° 0 mm 3 mps 742 mmHg 48%
    16:00 +18°C° 0 mm 3 mps 742 mmHg 50%
    17:00 +18°C° 0 mm 2 mps 742 mmHg 51%
    18:00 +17°C° 0 mm 2 mps 742 mmHg 57%
    19:00 +16°C° 0 mm 2 mps 742 mmHg 62%
    20:00 +15°C° 0 mm 1 mps 742 mmHg 68%
    21:00 +14°C° 0 mm 1 mps 742 mmHg 74%
    22:00 +12°C° 0 mm 1 mps 742 mmHg 80%
    23:00 +11°C° 0 mm 1 mps 742 mmHg 87%

    30 May, Thursday

    Time Temperature Precipitation Wind Pressure Humidity
    00:00 +10°C° 0 mm 1 mps 742 mmHg 86%
    01:00 +10°C° 0 mm 1 mps 742 mmHg 85%
    02:00 +10°C° 0 mm 1 mps 742 mmHg 84%
    03:00 +9°C° 0 mm 2 mps 742 mmHg 79%
    04:00 +9°C° 0 mm 2 mps 742 mmHg 74%
    05:00 +9°C° 0 mm 2 mps 742 mmHg 70%
    06:00 +10°C° 0 mm 3 mps 743 mmHg 65%
    07:00 +11°C° 0 mm 3 mps 743 mmHg 60%
    08:00 +12°C° 0 mm 3 mps 743 mmHg 55%
    09:00 +13°C° 0 mm 4 mps 744 mmHg 49%
    10:00 +14°C° 0 mm 4 mps 744 mmHg 44%
    11:00 +14°C° 0 mm 4 mps 744 mmHg 38%
    12:00 +15°C° 0 mm 4 mps 744 mmHg 34%
    13:00 +15°C° 0 mm 4 mps 745 mmHg 29%
    14:00 +15°C° 0 mm 4 mps 745 mmHg 25%
    15:00 +15°C° 0 mm 4 mps 745 mmHg 26%
    16:00 +16°C° 0 mm 3 mps 745 mmHg 27%
    17:00 +16°C° 0 mm 3 mps 746 mmHg 28%
    18:00 +14°C° 0 mm 3 mps 746 mmHg 35%
    19:00 +15°C° 0 mm 2 mps 746 mmHg 41%
    20:00 +14°C° 0 mm 2 mps 746 mmHg 47%
    21:00 +12°C° 0 mm 2 mps 746 mmHg 54%
    22:00 +10°C° 0 mm 2 mps 747 mmHg 61%
    23:00 +8°C° 0 mm 2 mps 747 mmHg 68%

    31 May, Friday

    Time Temperature Precipitation Wind Pressure Humidity
    00:00 +7°C° 0 mm 2 mps 747 mmHg 72%
    01:00 +7°C° 0 mm 2 mps 747 mmHg 77%
    02:00 +7°C° 0 mm 1 mps 747 mmHg 81%
    03:00 +7°C° 0 mm 2 mps 747 mmHg 78%
    04:00 +7°C° 0 mm 2 mps 747 mmHg 74%
    05:00 +8°C° 0 mm 2 mps 747 mmHg 71%
    06:00 +9°C° 0 mm 3 mps 747 mmHg 64%
    07:00 +11°C° 0 mm 3 mps 747 mmHg 57%
    08:00 +12°C° 0 mm 4 mps 747 mmHg 51%
    09:00 +13°C° 0 mm 4 mps 746 mmHg 46%
    10:00 +14°C° 0 mm 5 mps 746 mmHg 41%
    11:00 +15°C° 0 mm 5 mps 745 mmHg 36%
    12:00 +16°C° 0 mm 6 mps 745 mmHg 36%
    13:00 +16°C° 0 mm 6 mps 745 mmHg 37%
    14:00 +16°C° 0 mm 6 mps 744 mmHg 37%
    15:00 +16°C° 0 mm 5 mps 744 mmHg 40%
    16:00 +16°C° 0 mm 5 mps 743 mmHg 42%
    17:00 +17°C° 0 mm 4 mps 743 mmHg 45%
    18:00 +15°C° 0 mm 4 mps 743 mmHg 51%
    19:00 +14°C° 0 mm 3 mps 743 mmHg 57%
    20:00 +13°C° 0 mm 3 mps 742 mmHg 64%
    21:00 +11°C° 0.5 mm 3 mps 742 mmHg 71%
    22:00 +10°C° 0.5 mm 3 mps 742 mmHg 79%
    23:00 +7°C° 0.5 mm 4 mps 742 mmHg 86%
    Show more